| time (UTC) | temp F | wind direction | speed knots | gust knots | rain 1hr in | rain 24hr in | rain mn in | humidity % | barometer mb |
| 20260507180637 | 68 | 217 | 2.6 | 6.1 | 0.00 | 0.00 | 0.00 | 47 | 1013.0 |
| 20260507180132 | 68 | 175 | 1.7 | 6.1 | 0.00 | 0.00 | 0.00 | 49 | 1012.9 |
| 20260507175638 | 68 | 263 | 2.6 | 6.1 | 0.00 | 0.00 | 0.00 | 44 | 1013.1 |
| 20260507175123 | 67 | 184 | 1.7 | 5.2 | 0.00 | 0.00 | 0.00 | 46 | 1013.2 |
| 20260507174630 | 67 | 206 | 2.6 | 5.2 | 0.00 | 0.00 | 0.00 | 47 | 1013.3 |
| 20260507174136 | 67 | 238 | 2.6 | 6.1 | 0.00 | 0.00 | 0.00 | 46 | 1013.5 |
| 20260507173643 | 67 | 269 | 2.6 | 6.1 | 0.00 | 0.00 | 0.00 | 47 | 1013.7 |
| 20260507173128 | 66 | 181 | 2.6 | 7.0 | 0.00 | 0.00 | 0.00 | 47 | 1013.7 |
| 20260507172636 | 67 | 226 | 1.7 | 7.0 | 0.00 | 0.00 | 0.00 | 48 | 1013.8 |
| 20260507172123 | 66 | 206 | 1.7 | 4.3 | 0.00 | 0.00 | 0.00 | 47 | 1013.9 |
| 20260507171628 | 66 | 251 | 1.7 | 4.3 | 0.00 | 0.00 | 0.00 | 49 | 1013.9 |
| 20260507171134 | 66 | 195 | 2.6 | 5.2 | 0.00 | 0.00 | 0.00 | 50 | 1014.0 |
| 20260507170630 | 65 | 209 | 2.6 | 5.2 | 0.00 | 0.00 | 0.00 | 51 | 1013.9 |
| 20260507170145 | 65 | 208 | 2.6 | 7.0 | 0.00 | 0.00 | 0.00 | 50 | 1014.0 |
| 20260507165627 | 64 | 262 | 1.7 | 7.0 | 0.00 | 0.00 | 0.00 | 51 | 1014.2 |
| 20260507165132 | 64 | 223 | 2.6 | 5.2 | 0.00 | 0.00 | 0.00 | 51 | 1014.2 |
| 20260507164640 | 64 | 254 | 2.6 | 5.2 | 0.00 | 0.00 | 0.00 | 51 | 1014.3 |
| 20260507164125 | 63 | 202 | 2.6 | 5.2 | 0.00 | 0.00 | 0.00 | 51 | 1014.4 |
| 20260507163630 | 63 | 234 | 2.6 | 5.2 | 0.00 | 0.00 | 0.00 | 52 | 1014.5 |
| 20260507163135 | 63 | 279 | 1.7 | 7.0 | 0.00 | 0.00 | 0.00 | 53 | 1014.5 |
| 20260507162640 | 62 | 222 | 2.6 | 7.0 | 0.00 | 0.00 | 0.00 | 54 | 1014.5 |
| 20260507162129 | 62 | 196 | 2.6 | 5.2 | 0.00 | 0.00 | 0.00 | 54 | 1014.6 |
| 20260507161655 | 62 | 229 | 1.7 | 5.2 | 0.00 | 0.00 | 0.00 | 56 | 1014.7 |
| 20260507161140 | 62 | 263 | 1.7 | 5.2 | 0.00 | 0.00 | 0.00 | 57 | 1014.7 |
| 20260507160636 | 61 | 195 | 3.5 | 6.1 | 0.00 | 0.00 | 0.00 | 55 | 1014.7 |
| 20260507160154 | 61 | 239 | 1.7 | 6.1 | 0.00 | 0.00 | 0.00 | 56 | 1014.8 |
| 20260507155636 | 60 | 243 | 2.6 | 6.1 | 0.00 | 0.00 | 0.00 | 57 | 1014.7 |
| 20260507155201 | 61 | 239 | 1.7 | 6.1 | 0.00 | 0.00 | 0.00 | 58 | 1014.9 |
| 20260507154627 | 60 | 202 | 2.6 | 6.1 | 0.00 | 0.00 | 0.00 | 59 | 1014.9 |
| 20260507154132 | 60 | 233 | 1.7 | 4.3 | 0.00 | 0.00 | 0.00 | 60 | 1015.0 |
| 20260507153659 | 59 | 126 | 1.7 | 4.3 | 0.00 | 0.00 | 0.00 | 61 | 1015.1 |
| 20260507153124 | 59 | 212 | 1.7 | 7.0 | 0.00 | 0.00 | 0.00 | 61 | 1015.1 |
| 20260507152631 | 58 | 295 | 2.6 | 7.0 | 0.00 | 0.00 | 0.00 | 62 | 1015.2 |
| 20260507152135 | 58 | 228 | 2.6 | 7.0 | 0.00 | 0.00 | 0.00 | 62 | 1015.3 |
| 20260507151622 | 58 | 248 | 2.6 | 7.0 | 0.00 | 0.00 | 0.00 | 64 | 1015.4 |
| 20260507151128 | 57 | 219 | 1.7 | 7.8 | 0.00 | 0.00 | 0.00 | 63 | 1015.5 |
| 20260507150626 | 57 | 292 | 1.7 | 7.8 | 0.00 | 0.00 | 0.00 | 66 | 1015.6 |
| 20260507150122 | 57 | 300 | 2.6 | 7.8 | 0.00 | 0.00 | 0.00 | 65 | 1015.6 |
| 20260507145630 | 56 | 223 | 1.7 | 4.3 | 0.00 | 0.00 | 0.00 | 65 | 1015.5 |
| 20260507145136 | 56 | 257 | 0.9 | 4.3 | 0.00 | 0.00 | 0.00 | 69 | 1015.6 |
| 20260507144642 | 56 | 233 | 1.7 | 5.2 | 0.00 | 0.00 | 0.00 | 67 | 1015.7 |
| 20260507144127 | 56 | 246 | 1.7 | 5.2 | 0.00 | 0.00 | 0.00 | 68 | 1015.7 |
| 20260507143633 | 55 | 232 | 1.7 | 4.3 | 0.00 | 0.00 | 0.00 | 70 | 1015.8 |
| 20260507143137 | 55 | 169 | 1.7 | 4.3 | 0.00 | 0.00 | 0.00 | 70 | 1015.8 |
| 20260507142643 | 55 | 272 | 1.7 | 3.5 | 0.00 | 0.00 | 0.00 | 72 | 1015.9 |
| 20260507142128 | 54 | 263 | 1.7 | 3.5 | 0.00 | 0.00 | 0.00 | 72 | 1015.9 |
| 20260507141632 | 54 | 158 | 1.7 | 3.5 | 0.00 | 0.00 | 0.00 | 74 | 1015.9 |
| 20260507141137 | 53 | 225 | 0.9 | 2.6 | 0.00 | 0.00 | 0.00 | 76 | 1016.0 |
| 20260507140634 | 53 | 211 | 1.7 | 2.6 | 0.00 | 0.00 | 0.00 | 76 | 1016.1 |
| 20260507140133 | 52 | 284 | 1.7 | 3.5 | 0.00 | 0.00 | 0.00 | 76 | 1016.2 |
| 20260507135620 | 51 | 254 | 1.7 | 3.5 | 0.00 | 0.00 | 0.00 | 77 | 1016.1 |
| 20260507135146 | 51 | 242 | 1.7 | 3.5 | 0.00 | 0.00 | 0.00 | 79 | 1016.2 |
| 20260507134631 | 51 | 202 | 0.9 | 2.6 | 0.00 | 0.00 | 0.00 | 79 | 1016.2 |
| 20260507134136 | 50 | 278 | 1.7 | 3.5 | 0.00 | 0.00 | 0.00 | 80 | 1016.3 |
| 20260507133639 | 50 | 232 | 1.7 | 3.5 | 0.00 | 0.00 | 0.00 | 81 | 1016.2 |
| 20260507133123 | 49 | 224 | 1.7 | 2.6 | 0.00 | 0.00 | 0.00 | 82 | 1016.1 |
| 20260507132630 | 49 | 216 | 0.9 | 2.6 | 0.00 | 0.00 | 0.00 | 83 | 1016.1 |
| 20260507132134 | 48 | 305 | 0.9 | 2.6 | 0.00 | 0.00 | 0.00 | 84 | 1016.2 |
| 20260507131640 | 48 | 244 | 1.7 | 2.6 | 0.00 | 0.00 | 0.00 | 84 | 1016.2 |
| 20260507131125 | 47 | 205 | 1.7 | 3.5 | 0.00 | 0.00 | 0.00 | 85 | 1016.2 |
| 20260507130640 | 47 | 202 | 1.7 | 3.5 | 0.00 | 0.00 | 0.00 | 85 | 1016.1 |
| 20260507130132 | 46 | 238 | 1.7 | 3.5 | 0.00 | 0.00 | 0.00 | 86 | 1016.2 |
| 20260507125659 | 46 | 227 | 1.7 | 3.5 | 0.00 | 0.00 | 0.00 | 86 | 1016.1 |
| 20260507125121 | 46 | 224 | 1.7 | 3.5 | 0.00 | 0.00 | 0.00 | 87 | 1016.2 |
| 20260507124630 | 46 | 214 | 1.7 | 3.5 | 0.00 | 0.00 | 0.00 | 87 | 1016.0 |
| 20260507124135 | 45 | 220 | 0.9 | 2.6 | 0.00 | 0.00 | 0.00 | 88 | 1016.1 |
| 20260507123640 | 45 | 204 | 1.7 | 2.6 | 0.00 | 0.00 | 0.00 | 88 | 1015.9 |
| 20260507123126 | 45 | 210 | 1.7 | 2.6 | 0.00 | 0.00 | 0.00 | 88 | 1016.0 |
| 20260507122632 | 45 | 222 | 0.9 | 2.6 | 0.00 | 0.00 | 0.00 | 88 | 1016.0 |
| 20260507122137 | 44 | 223 | 0.9 | 2.6 | 0.00 | 0.00 | 0.00 | 89 | 1015.9 |
| 20260507121622 | 44 | 225 | 0.9 | 2.6 | 0.00 | 0.00 | 0.00 | 89 | 1015.9 |
| 20260507121127 | 44 | 225 | 0.9 | 1.7 | 0.00 | 0.00 | 0.00 | 90 | 1015.8 |
| 20260507120640 | 44 | 227 | 0.9 | 1.7 | 0.00 | 0.00 | 0.00 | 90 | 1015.8 |
| 20260507120136 | 44 | 228 | 0.9 | 1.7 | 0.00 | 0.00 | 0.00 | 90 | 1016.0 |
| 20260507115621 | 44 | 245 | 0.9 | 1.7 | 0.00 | 0.00 | 0.00 | 91 | 1016.1 |
| 20260507115131 | 44 | 245 | 0.9 | 1.7 | 0.00 | 0.00 | 0.00 | 91 | 1016.1 |
| 20260507114637 | 43 | 245 | 0.9 | 1.7 | 0.00 | 0.00 | 0.00 | 91 | 1016.1 |
| 20260507114122 | 43 | 253 | 0.0 | 1.7 | 0.00 | 0.00 | 0.00 | 91 | 1016.1 |
| 20260507113627 | 43 | 253 | 0.9 | 1.7 | 0.00 | 0.00 | 0.00 | 91 | 1016.1 |
| 20260507113133 | 43 | 253 | 0.9 | 0.9 | 0.00 | 0.00 | 0.00 | 92 | 1016.1 |
| 20260507112637 | 42 | 253 | 0.0 | 0.9 | 0.00 | 0.00 | 0.00 | 91 | 1016.3 |
| 20260507112122 | 42 | 253 | 0.0 | 0.9 | 0.00 | 0.00 | 0.00 | 91 | 1016.3 |
| 20260507111628 | 42 | 253 | 0.0 | 0.0 | 0.00 | 0.00 | 0.00 | 91 | 1016.2 |
| 20260507111134 | 42 | 253 | 0.0 | 0.0 | 0.00 | 0.00 | 0.00 | 91 | 1016.2 |
| 20260507110651 | 42 | 253 | 0.0 | 0.9 | 0.00 | 0.00 | 0.00 | 90 | 1016.3 |
| 20260507110126 | 42 | 253 | 0.0 | 0.9 | 0.00 | 0.00 | 0.00 | 90 | 1016.3 |
| 20260507105631 | 42 | 253 | 0.0 | 0.0 | 0.00 | 0.00 | 0.00 | 90 | 1016.3 |
| 20260507105122 | 42 | 253 | 0.0 | 0.0 | 0.00 | 0.00 | 0.00 | 89 | 1016.2 |
| 20260507104628 | 42 | 253 | 0.0 | 0.0 | 0.00 | 0.00 | 0.00 | 89 | 1016.3 |
| 20260507104135 | 42 | 253 | 0.0 | 0.0 | 0.00 | 0.00 | 0.00 | 89 | 1016.3 |
| 20260507103700 | 43 | 253 | 0.0 | 0.0 | 0.00 | 0.00 | 0.00 | 89 | 1016.3 |
| 20260507103124 | 43 | 253 | 0.0 | 0.9 | 0.00 | 0.00 | 0.00 | 89 | 1016.4 |
| 20260507102629 | 43 | 253 | 0.0 | 0.9 | 0.00 | 0.00 | 0.00 | 89 | 1016.3 |
| 20260507102136 | 43 | 253 | 0.0 | 0.9 | 0.00 | 0.00 | 0.00 | 89 | 1016.2 |
| 20260507101621 | 43 | 253 | 0.0 | 0.9 | 0.00 | 0.00 | 0.00 | 88 | 1016.3 |
| 20260507101127 | 43 | 253 | 0.0 | 0.9 | 0.00 | 0.00 | 0.00 | 88 | 1016.3 |
| 20260507100622 | 44 | 253 | 0.0 | 1.7 | 0.00 | 0.00 | 0.00 | 88 | 1016.3 |
| 20260507100140 | 44 | 253 | 0.0 | 1.7 | 0.00 | 0.00 | 0.00 | 88 | 1016.3 |
| 20260507095624 | 44 | 253 | 0.0 | 0.9 | 0.00 | 0.00 | 0.00 | 88 | 1016.3 |
| 20260507095135 | 44 | 260 | 0.0 | 0.9 | 0.00 | 0.00 | 0.00 | 87 | 1016.3 |
| 20260507094700 | 44 | 260 | 0.0 | 0.0 | 0.00 | 0.00 | 0.00 | 87 | 1016.3 |
| 20260507094145 | 44 | 260 | 0.0 | 0.0 | 0.00 | 0.00 | 0.00 | 85 | 1016.3 |
| 20260507093629 | 45 | 260 | 0.0 | 0.9 | 0.00 | 0.00 | 0.00 | 85 | 1016.4 |
| 20260507093135 | 45 | 260 | 0.0 | 0.9 | 0.00 | 0.00 | 0.00 | 85 | 1016.5 |
| 20260507092621 | 46 | 260 | 0.0 | 0.9 | 0.00 | 0.00 | 0.00 | 85 | 1016.5 |
| 20260507092127 | 46 | 260 | 0.0 | 0.9 | 0.00 | 0.00 | 0.00 | 84 | 1016.5 |
| 20260507091655 | 46 | 260 | 0.0 | 0.9 | 0.00 | 0.00 | 0.00 | 84 | 1016.5 |
| 20260507091137 | 46 | 260 | 0.0 | 0.9 | 0.00 | 0.00 | 0.00 | 83 | 1016.6 |
| 20260507090633 | 46 | 260 | 0.0 | 0.9 | 0.00 | 0.00 | 0.00 | 83 | 1016.4 |
| 20260507090130 | 46 | 259 | 0.0 | 0.9 | 0.00 | 0.00 | 0.00 | 83 | 1016.5 |
| 20260507085636 | 46 | 259 | 0.0 | 0.9 | 0.00 | 0.00 | 0.00 | 83 | 1016.6 |
| 20260507085142 | 46 | 259 | 0.9 | 1.7 | 0.00 | 0.00 | 0.00 | 83 | 1016.7 |
| 20260507084628 | 46 | 259 | 0.0 | 1.7 | 0.00 | 0.00 | 0.00 | 82 | 1016.8 |
| 20260507084135 | 46 | 259 | 0.9 | 0.9 | 0.00 | 0.00 | 0.00 | 82 | 1016.8 |
| 20260507083626 | 46 | 259 | 0.0 | 0.9 | 0.00 | 0.00 | 0.00 | 82 | 1016.8 |
| 20260507083131 | 47 | 259 | 0.0 | 0.9 | 0.00 | 0.00 | 0.00 | 82 | 1016.8 |
| 20260507082637 | 46 | 259 | 0.0 | 1.7 | 0.00 | 0.00 | 0.00 | 82 | 1016.8 |
| 20260507082123 | 47 | 259 | 0.9 | 1.7 | 0.00 | 0.00 | 0.00 | 81 | 1016.9 |
| 20260507081651 | 47 | 259 | 0.9 | 1.7 | 0.00 | 0.00 | 0.00 | 81 | 1016.8 |
| 20260507081136 | 47 | 259 | 0.9 | 1.7 | 0.00 | 0.00 | 0.00 | 81 | 1016.8 |
| 20260507080630 | 47 | 259 | 0.9 | 1.7 | 0.00 | 0.00 | 0.00 | 80 | 1016.9 |
| 20260507080128 | 47 | 259 | 0.9 | 1.7 | 0.00 | 0.00 | 0.00 | 80 | 1017.1 |
| 20260507075634 | 47 | 259 | 0.9 | 1.7 | 0.00 | 0.00 | 0.00 | 80 | 1017.0 |
| 20260507075120 | 47 | 259 | 0.0 | 0.9 | 0.00 | 0.00 | 0.00 | 80 | 1017.1 |
| 20260507074627 | 47 | 259 | 0.0 | 0.9 | 0.00 | 0.00 | 0.00 | 80 | 1017.1 |
| 20260507074133 | 48 | 259 | 0.0 | 0.9 | 0.00 | 0.00 | 0.00 | 79 | 1017.2 |
| 20260507073622 | 48 | 259 | 0.0 | 0.9 | 0.00 | 0.00 | 0.00 | 79 | 1017.2 |
| 20260507073128 | 48 | 259 | 0.0 | 0.9 | 0.00 | 0.00 | 0.00 | 79 | 1017.2 |
| 20260507072634 | 48 | 259 | 0.0 | 0.9 | 0.00 | 0.00 | 0.00 | 79 | 1017.2 |
| 20260507072140 | 48 | 259 | 0.0 | 0.0 | 0.00 | 0.00 | 0.00 | 79 | 1017.4 |
| 20260507071626 | 48 | 259 | 0.0 | 0.9 | 0.00 | 0.00 | 0.00 | 78 | 1017.4 |
| 20260507071151 | 49 | 259 | 0.0 | 1.7 | 0.00 | 0.00 | 0.00 | 78 | 1017.4 |
| 20260507070627 | 49 | 259 | 0.0 | 1.7 | 0.00 | 0.00 | 0.00 | 77 | 1017.4 |
| 20260507070123 | 49 | 242 | 0.0 | 0.9 | 0.00 | 0.00 | 0.00 | 78 | 1017.4 |
| 20260507065630 | 49 | 242 | 0.0 | 0.9 | 0.00 | 0.00 | 0.00 | 78 | 1017.5 |
| 20260507065136 | 48 | 242 | 0.0 | 0.9 | 0.00 | 0.00 | 0.00 | 79 | 1017.5 |
| 20260507064622 | 48 | 242 | 0.0 | 0.9 | 0.00 | 0.00 | 0.00 | 79 | 1017.5 |
| 20260507064127 | 48 | 242 | 0.0 | 0.9 | 0.00 | 0.00 | 0.00 | 78 | 1017.6 |
| 20260507063634 | 49 | 249 | 0.0 | 0.9 | 0.00 | 0.00 | 0.00 | 78 | 1017.6 |
| 20260507063145 | 49 | 248 | 0.0 | 0.0 | 0.00 | 0.00 | 0.00 | 77 | 1017.6 |
| 20260507062649 | 49 | 248 | 0.0 | 0.9 | 0.00 | 0.00 | 0.00 | 77 | 1017.7 |
| 20260507062134 | 49 | 248 | 0.0 | 0.9 | 0.00 | 0.00 | 0.00 | 78 | 1017.7 |
| 20260507061639 | 49 | 248 | 0.0 | 0.9 | 0.00 | 0.00 | 0.00 | 79 | 1017.7 |
| 20260507061124 | 48 | 248 | 0.0 | 0.9 | 0.00 | 0.00 | 0.00 | 79 | 1017.8 |
| 20260507060639 | 49 | 248 | 0.0 | 0.9 | 0.00 | 0.00 | 0.00 | 78 | 1017.9 |
| 20260507060136 | 49 | 248 | 0.0 | 0.9 | 0.00 | 0.00 | 0.00 | 78 | 1017.8 |
| 20260507055641 | 48 | 248 | 0.0 | 0.0 | 0.00 | 0.00 | 0.00 | 79 | 1017.9 |
| 20260507055128 | 48 | 248 | 0.0 | 0.0 | 0.00 | 0.00 | 0.00 | 77 | 1017.9 |
| 20260507054632 | 49 | 248 | 0.0 | 0.0 | 0.00 | 0.00 | 0.00 | 77 | 1018.0 |
| 20260507054139 | 49 | 248 | 0.0 | 0.0 | 0.00 | 0.00 | 0.00 | 75 | 1018.1 |
| 20260507053627 | 50 | 248 | 0.0 | 1.7 | 0.00 | 0.00 | 0.00 | 73 | 1018.1 |
| 20260507053133 | 50 | 248 | 0.0 | 1.7 | 0.00 | 0.00 | 0.00 | 72 | 1018.2 |
| 20260507052624 | 51 | 253 | 0.9 | 0.9 | 0.00 | 0.00 | 0.00 | 71 | 1018.2 |
| 20260507052128 | 51 | 253 | 0.0 | 0.9 | 0.00 | 0.00 | 0.00 | 70 | 1018.1 |
| 20260507051633 | 51 | 253 | 0.9 | 1.7 | 0.00 | 0.00 | 0.00 | 70 | 1018.3 |
| 20260507051137 | 51 | 253 | 0.9 | 1.7 | 0.00 | 0.00 | 0.00 | 70 | 1018.0 |
| 20260507050627 | 51 | 254 | 0.9 | 1.7 | 0.00 | 0.00 | 0.00 | 69 | 1018.0 |
| 20260507050122 | 51 | 254 | 0.9 | 1.7 | 0.00 | 0.00 | 0.00 | 69 | 1018.1 |
| 20260507045627 | 51 | 254 | 0.9 | 1.7 | 0.00 | 0.00 | 0.00 | 68 | 1018.2 |
| 20260507045133 | 51 | 254 | 0.9 | 1.7 | 0.00 | 0.00 | 0.00 | 68 | 1018.1 |
| 20260507044638 | 51 | 254 | 0.9 | 0.9 | 0.00 | 0.00 | 0.00 | 67 | 1018.1 |
| 20260507044141 | 52 | 254 | 0.9 | 1.7 | 0.00 | 0.00 | 0.00 | 67 | 1018.1 |
| 20260507043647 | 52 | 254 | 0.9 | 1.7 | 0.00 | 0.00 | 0.00 | 66 | 1018.1 |
| 20260507043132 | 52 | 267 | 0.9 | 1.7 | 0.00 | 0.00 | 0.00 | 66 | 1018.1 |
| 20260507042638 | 52 | 267 | 0.9 | 1.7 | 0.00 | 0.00 | 0.00 | 66 | 1018.0 |
| 20260507042144 | 52 | 267 | 0.9 | 1.7 | 0.00 | 0.00 | 0.00 | 66 | 1018.0 |
| 20260507041626 | 52 | 267 | 0.9 | 1.7 | 0.00 | 0.00 | 0.00 | 66 | 1018.1 |
| 20260507041137 | 52 | 267 | 0.9 | 1.7 | 0.00 | 0.00 | 0.00 | 66 | 1018.0 |
| 20260507040634 | 52 | 267 | 0.9 | 1.7 | 0.00 | 0.00 | 0.00 | 66 | 1018.1 |
| 20260507040130 | 52 | 267 | 0.9 | 1.7 | 0.00 | 0.00 | 0.00 | 66 | 1018.1 |
| 20260507035636 | 52 | 267 | 0.9 | 1.7 | 0.00 | 0.00 | 0.00 | 66 | 1018.1 |
| 20260507035143 | 52 | 267 | 0.9 | 1.7 | 0.00 | 0.00 | 0.00 | 65 | 1018.1 |
| 20260507034627 | 52 | 267 | 0.9 | 1.7 | 0.00 | 0.00 | 0.00 | 65 | 1018.1 |
| 20260507034134 | 52 | 290 | 0.9 | 1.7 | 0.00 | 0.00 | 0.00 | 65 | 1018.1 |
| 20260507033639 | 52 | 290 | 0.9 | 0.9 | 0.00 | 0.00 | 0.00 | 65 | 1018.1 |
| 20260507033125 | 52 | 290 | 0.0 | 0.9 | 0.00 | 0.00 | 0.00 | 65 | 1018.1 |
| 20260507032630 | 52 | 290 | 0.0 | 0.9 | 0.00 | 0.00 | 0.00 | 65 | 1018.1 |
| 20260507032134 | 52 | 290 | 0.0 | 0.9 | 0.00 | 0.00 | 0.00 | 65 | 1018.1 |
| 20260507031700 | 53 | 290 | 0.9 | 1.7 | 0.00 | 0.00 | 0.00 | 65 | 1018.1 |
| 20260507031129 | 53 | 290 | 0.0 | 1.7 | 0.00 | 0.00 | 0.00 | 64 | 1018.0 |
| 20260507030645 | 53 | 293 | 0.9 | 1.7 | 0.00 | 0.00 | 0.00 | 64 | 1018.1 |
| 20260507030156 | 53 | 293 | 0.9 | 1.7 | 0.00 | 0.00 | 0.00 | 64 | 1018.1 |
| 20260507025637 | 53 | 293 | 0.9 | 1.7 | 0.00 | 0.00 | 0.00 | 64 | 1018.1 |
| 20260507025125 | 53 | 293 | 0.9 | 1.7 | 0.00 | 0.00 | 0.00 | 64 | 1018.1 |
| 20260507024631 | 53 | 293 | 0.9 | 1.7 | 0.00 | 0.00 | 0.00 | 63 | 1018.1 |
| 20260507024137 | 53 | 300 | 0.9 | 1.7 | 0.00 | 0.00 | 0.00 | 63 | 1018.1 |
| 20260507023644 | 53 | 323 | 0.9 | 1.7 | 0.00 | 0.00 | 0.00 | 63 | 1017.9 |
| 20260507023130 | 53 | 327 | 0.9 | 0.9 | 0.00 | 0.00 | 0.00 | 64 | 1018.0 |
| 20260507022635 | 53 | 326 | 0.0 | 1.7 | 0.00 | 0.00 | 0.00 | 65 | 1018.0 |
| 20260507022140 | 53 | 326 | 0.9 | 1.7 | 0.00 | 0.00 | 0.00 | 64 | 1017.9 |
| 20260507021625 | 53 | 326 | 0.9 | 1.7 | 0.00 | 0.00 | 0.00 | 63 | 1017.9 |
| 20260507021133 | 53 | 326 | 0.9 | 0.9 | 0.00 | 0.00 | 0.00 | 63 | 1017.7 |
| 20260507020628 | 53 | 326 | 0.0 | 0.9 | 0.00 | 0.00 | 0.00 | 62 | 1017.7 |
| 20260507020124 | 53 | 326 | 0.0 | 0.9 | 0.00 | 0.00 | 0.00 | 62 | 1017.7 |
| 20260507015630 | 53 | 326 | 0.0 | 0.9 | 0.00 | 0.00 | 0.00 | 62 | 1017.7 |
| 20260507015136 | 54 | 326 | 0.0 | 0.9 | 0.00 | 0.00 | 0.00 | 61 | 1017.6 |
| 20260507014624 | 54 | 326 | 0.9 | 0.9 | 0.00 | 0.00 | 0.00 | 60 | 1017.6 |
| 20260507014131 | 54 | 331 | 0.0 | 0.9 | 0.00 | 0.00 | 0.00 | 59 | 1017.6 |
| 20260507013634 | 54 | 355 | 0.0 | 0.9 | 0.00 | 0.00 | 0.00 | 59 | 1017.5 |
| 20260507013139 | 54 | 355 | 0.0 | 0.9 | 0.00 | 0.00 | 0.00 | 59 | 1017.4 |
| 20260507012625 | 54 | 355 | 0.0 | 0.9 | 0.00 | 0.00 | 0.00 | 58 | 1017.5 |
| 20260507012131 | 54 | 355 | 0.0 | 0.9 | 0.00 | 0.00 | 0.00 | 58 | 1017.3 |
| 20260507011656 | 55 | 355 | 0.0 | 0.9 | 0.00 | 0.00 | 0.00 | 57 | 1017.3 |
| 20260507011140 | 55 | 355 | 0.0 | 0.9 | 0.00 | 0.00 | 0.00 | 56 | 1017.2 |
| 20260507010636 | 55 | 355 | 0.0 | 0.9 | 0.00 | 0.00 | 0.00 | 55 | 1017.1 |
| 20260507010132 | 56 | 355 | 0.0 | 0.0 | 0.00 | 0.00 | 0.00 | 54 | 1017.2 |
| 20260507005636 | 56 | 355 | 0.0 | 0.0 | 0.00 | 0.00 | 0.00 | 54 | 1017.1 |
| 20260507005122 | 56 | 355 | 0.0 | 0.9 | 0.00 | 0.00 | 0.00 | 52 | 1017.2 |
| 20260507004628 | 57 | 355 | 0.0 | 0.9 | 0.00 | 0.00 | 0.00 | 52 | 1017.0 |
| 20260507004153 | 57 | 355 | 0.0 | 0.9 | 0.00 | 0.00 | 0.00 | 51 | 1017.0 |
| 20260507003623 | 57 | 355 | 0.0 | 0.9 | 0.00 | 0.00 | 0.00 | 49 | 1017.2 |
| 20260507003129 | 58 | 355 | 0.0 | 1.7 | 0.00 | 0.00 | 0.00 | 48 | 1017.1 |
| 20260507002635 | 58 | 355 | 0.0 | 1.7 | 0.00 | 0.00 | 0.00 | 47 | 1017.2 |
| 20260507002201 | 58 | 298 | 0.9 | 1.7 | 0.00 | 0.00 | 0.00 | 48 | 1017.2 |
| 20260507001624 | 58 | 308 | 0.9 | 4.3 | 0.00 | 0.00 | 0.00 | 47 | 1017.2 |
| 20260507001152 | 59 | 279 | 1.7 | 6.1 | 0.00 | 0.00 | 0.00 | 47 | 1017.2 |
| 20260507000625 | 59 | 232 | 0.9 | 7.0 | 0.00 | 0.00 | 0.00 | 45 | 1017.3 |
| 20260507000123 | 59 | 297 | 2.6 | 7.0 | 0.00 | 0.00 | 0.00 | 42 | 1017.3 |
| 20260506235630 | 59 | 133 | 0.9 | 2.6 | 0.00 | 0.00 | 0.00 | 41 | 1017.2 |
| 20260506235135 | 59 | 65 | 1.7 | 2.6 | 0.00 | 0.00 | 0.00 | 42 | 1017.3 |
| 20260506234659 | 58 | 68 | 0.0 | 1.7 | 0.00 | 0.00 | 0.00 | 43 | 1017.4 |
| 20260506234126 | 58 | 245 | 0.0 | 0.9 | 0.00 | 0.00 | 0.00 | 47 | 1017.2 |
| 20260506233631 | 58 | 259 | 0.0 | 0.9 | 0.00 | 0.00 | 0.00 | 44 | 1017.2 |
| 20260506233136 | 58 | 259 | 0.0 | 2.6 | 0.00 | 0.00 | 0.00 | 46 | 1017.3 |
| 20260506232625 | 58 | 259 | 0.9 | 3.5 | 0.00 | 0.00 | 0.00 | 43 | 1017.3 |
| 20260506232151 | 58 | 283 | 1.7 | 7.8 | 0.00 | 0.00 | 0.00 | 44 | 1017.3 |
| 20260506231635 | 59 | 291 | 0.9 | 7.8 | 0.00 | 0.00 | 0.00 | 39 | 1017.3 |
| 20260506231121 | 59 | 57 | 1.7 | 7.0 | 0.00 | 0.00 | 0.00 | 39 | 1017.4 |
| 20260506230637 | 60 | 76 | 2.6 | 5.2 | 0.00 | 0.00 | 0.00 | 39 | 1017.5 |
| 20260506230134 | 59 | 22 | 1.7 | 3.5 | 0.00 | 0.00 | 0.00 | 44 | 1017.5 |
| 20260506225638 | 59 | 63 | 0.9 | 3.5 | 0.00 | 0.00 | 0.00 | 40 | 1017.6 |
| 20260506225122 | 59 | 122 | 1.7 | 2.6 | 0.00 | 0.00 | 0.00 | 43 | 1017.6 |
| 20260506224626 | 59 | 306 | 0.0 | 3.5 | 0.00 | 0.00 | 0.00 | 42 | 1017.5 |
| 20260506224153 | 59 | 232 | 1.7 | 4.3 | 0.00 | 0.00 | 0.00 | 43 | 1017.6 |
| 20260506223639 | 59 | 261 | 0.9 | 4.3 | 0.00 | 0.00 | 0.00 | 49 | 1017.5 |
| 20260506223125 | 58 | 309 | 2.6 | 4.3 | 0.00 | 0.00 | 0.00 | 41 | 1017.5 |
| 20260506222651 | 58 | 223 | 0.9 | 3.5 | 0.00 | 0.00 | 0.00 | 40 | 1017.4 |
| 20260506222135 | 59 | 355 | 0.9 | 4.3 | 0.00 | 0.00 | 0.00 | 40 | 1017.5 |
| 20260506221624 | 59 | 130 | 2.6 | 4.3 | 0.00 | 0.00 | 0.00 | 40 | 1017.6 |
| 20260506221131 | 59 | 44 | 1.7 | 4.3 | 0.00 | 0.00 | 0.00 | 38 | 1017.6 |
| 20260506220628 | 59 | 360 | 2.6 | 4.3 | 0.00 | 0.00 | 0.00 | 42 | 1017.7 |
| 20260506220125 | 58 | 255 | 0.9 | 4.3 | 0.00 | 0.00 | 0.00 | 41 | 1017.7 |
| 20260506215651 | 59 | 321 | 0.9 | 6.1 | 0.00 | 0.00 | 0.00 | 38 | 1017.7 |
| 20260506215136 | 60 | 194 | 0.9 | 6.1 | 0.00 | 0.00 | 0.00 | 43 | 1017.7 |
| 20260506214701 | 59 | 46 | 2.6 | 5.2 | 0.00 | 0.00 | 0.00 | 42 | 1017.8 |
| 20260506214126 | 59 | 323 | 0.9 | 5.2 | 0.00 | 0.00 | 0.00 | 40 | 1017.7 |
| 20260506213651 | 60 | 73 | 1.7 | 7.0 | 0.00 | 0.00 | 0.00 | 40 | 1017.8 |
| 20260506213137 | 59 | 19 | 2.6 | 7.8 | 0.00 | 0.00 | 0.00 | 43 | 1017.8 |
| 20260506212622 | 60 | 335 | 2.6 | 7.8 | 0.00 | 0.00 | 0.00 | 42 | 1017.9 |
| 20260506212129 | 59 | 311 | 1.7 | 4.3 | 0.00 | 0.00 | 0.00 | 39 | 1018.0 |
| 20260506211657 | 59 | 78 | 1.7 | 5.2 | 0.00 | 0.00 | 0.00 | 39 | 1018.1 |
| 20260506211121 | 59 | 5 | 1.7 | 5.2 | 0.00 | 0.00 | 0.00 | 46 | 1018.2 |
| 20260506210637 | 59 | 35 | 2.6 | 5.2 | 0.00 | 0.01 | 0.00 | 39 | 1018.3 |
| 20260506210153 | 59 | 139 | 1.7 | 3.5 | 0.00 | 0.01 | 0.00 | 42 | 1018.3 |
| 20260506205621 | 59 | 304 | 1.7 | 7.0 | 0.00 | 0.01 | 0.00 | 43 | 1018.4 |
| 20260506205128 | 60 | 34 | 1.7 | 7.0 | 0.00 | 0.01 | 0.00 | 49 | 1018.3 |
| 20260506204634 | 60 | 84 | 2.6 | 4.3 | 0.00 | 0.01 | 0.00 | 44 | 1018.5 |
| 20260506204138 | 60 | 260 | 0.9 | 3.5 | 0.00 | 0.01 | 0.00 | 52 | 1018.6 |
| 20260506203624 | 59 | 316 | 1.7 | 3.5 | 0.00 | 0.01 | 0.00 | 46 | 1018.7 |
| 20260506203128 | 59 | 305 | 0.9 | 4.3 | 0.00 | 0.01 | 0.00 | 43 | 1018.7 |
| 20260506202634 | 59 | 304 | 0.9 | 4.3 | 0.00 | 0.01 | 0.00 | 46 | 1019.0 |
| 20260506202138 | 59 | 342 | 1.7 | 3.5 | 0.00 | 0.01 | 0.00 | 46 | 1018.9 |
| 20260506201703 | 59 | 324 | 1.7 | 3.5 | 0.00 | 0.01 | 0.00 | 46 | 1019.0 |
| 20260506201137 | 59 | 175 | 0.9 | 2.6 | 0.00 | 0.01 | 0.00 | 45 | 1019.1 |
| 20260506200633 | 58 | 263 | 0.9 | 4.3 | 0.00 | 0.01 | 0.00 | 44 | 1019.1 |
| 20260506200140 | 58 | 58 | 1.7 | 4.3 | 0.00 | 0.01 | 0.00 | 42 | 1019.2 |
| 20260506195625 | 59 | 287 | 1.7 | 4.3 | 0.00 | 0.01 | 0.00 | 45 | 1019.2 |
| 20260506195149 | 58 | 131 | 0.9 | 4.3 | 0.00 | 0.01 | 0.00 | 42 | 1019.4 |
| 20260506194655 | 58 | 60 | 1.7 | 4.3 | 0.00 | 0.01 | 0.00 | 46 | 1019.4 |
| 20260506194123 | 58 | 5 | 1.7 | 7.8 | 0.00 | 0.01 | 0.00 | 44 | 1019.4 |
| 20260506193630 | 57 | 61 | 2.6 | 9.6 | 0.00 | 0.01 | 0.00 | 40 | 1019.5 |
| 20260506193135 | 58 | 47 | 3.5 | 9.6 | 0.00 | 0.01 | 0.00 | 40 | 1019.4 |
| 20260506192621 | 59 | 79 | 3.5 | 9.6 | 0.00 | 0.01 | 0.00 | 42 | 1019.5 |
| 20260506192128 | 59 | 63 | 3.5 | 7.8 | 0.00 | 0.01 | 0.00 | 43 | 1019.5 |
| 20260506191635 | 58 | 104 | 1.7 | 7.8 | 0.00 | 0.01 | 0.00 | 47 | 1019.5 |
| 20260506191141 | 58 | 53 | 3.5 | 9.6 | 0.00 | 0.01 | 0.00 | 43 | 1019.4 |
| 20260506190637 | 59 | 55 | 2.6 | 9.6 | 0.00 | 0.01 | 0.00 | 47 | 1019.5 |
| 20260506190133 | 59 | 49 | 3.5 | 8.7 | 0.00 | 0.01 | 0.00 | 47 | 1019.5 |
| 20260506185637 | 58 | 51 | 3.5 | 7.8 | 0.00 | 0.01 | 0.00 | 51 | 1019.3 |
| 20260506185123 | 58 | 345 | 3.5 | 7.8 | 0.00 | 0.01 | 0.00 | 45 | 1019.5 |
| 20260506184634 | 57 | 14 | 2.6 | 7.8 | 0.00 | 0.01 | 0.00 | 48 | 1019.5 |
| 20260506184139 | 57 | 321 | 2.6 | 9.6 | 0.00 | 0.01 | 0.00 | 45 | 1019.4 |
| 20260506183625 | 57 | 340 | 1.7 | 9.6 | 0.00 | 0.01 | 0.00 | 50 | 1019.4 |
| 20260506183152 | 56 | 44 | 0.9 | 4.3 | 0.00 | 0.01 | 0.00 | 52 | 1019.5 |
| 20260506182635 | 57 | 240 | 0.9 | 4.3 | 0.00 | 0.01 | 0.00 | 49 | 1019.6 |
| 20260506182138 | 58 | 118 | 2.6 | 5.2 | 0.00 | 0.01 | 0.00 | 50 | 1019.6 |
| 20260506181624 | 58 | 248 | 1.7 | 5.2 | 0.00 | 0.01 | 0.00 | 53 | 1019.8 |
| 20260506181129 | 57 | 24 | 0.9 | 5.2 | 0.00 | 0.01 | 0.00 | 45 | 1019.6 |